Weather observations for the past three days for
Raton Municipal - Crews Field Airport
| Date | Time (mdt) | Wind (kph) | Vis. (km) | Weather | Sky Cond. | Temperature (ºC) | Relative Humidity | Wind Chill (°C) | Heat Index (°C) | Pressure | Precipitation (cm) | ||||||
|---|---|---|---|---|---|---|---|---|---|---|---|---|---|---|---|---|---|
| Air | Dwpt | 6 hour | altimeter (cm) | sea level (mb) | 1 hr | 3 hr | 6 hr | ||||||||||
| Max. | Min. | ||||||||||||||||
| 03 | 21:53 | NW 20 | 16.09 | Fair | CLR | 16.1 | -7.8 | 19% | 76.05 | 1007.1 | |||||||
| 03 | 20:53 | NW 13 | 16.09 | Partly Cloudy | SCT120 | 15 | -6.1 | 23% | 76.02 | 1007.5 | |||||||
| 03 | 19:53 | SW 7 | 16.09 | A Few Clouds | FEW120 | 17.2 | -5.6 | 21% | 75.95 | 1007.4 | |||||||
| 03 | 18:53 | S 11 | 16.09 | Fair | CLR | 17.2 | -5 | 22% | 75.95 | 1008.1 | |||||||
| 03 | 17:53 | SW 24 G 39 | 16.09 | Fair | CLR | 21.1 | -8.9 | 22.2 | 18.9 | 12% | 75.97 | 1007.6 | |||||
| 03 | 16:53 | SW 24 G 44 | 16.09 | Fair | CLR | 21.7 | -8.9 | 12% | 76.02 | 1007.7 | |||||||
| 03 | 15:53 | S 22 G 43 | 16.09 | Fair | CLR | 21.7 | -7.2 | 14% | 76.1 | 1008.6 | |||||||
| 03 | 14:53 | S 22 G 37 | 16.09 | Fair | CLR | 21.1 | -7.8 | 14% | 76.17 | 1010.1 | |||||||
| 03 | 13:53 | Vrbl 9 G 33 | 16.09 | Fair | CLR | 20.6 | -7.2 | 15% | 76.3 | 1011.4 | |||||||
| 03 | 12:53 | S 19 G 31 | 16.09 | Fair | CLR | 20 | -8.9 | 13% | 76.35 | 1012.3 | |||||||
| 03 | 11:53 | S 15 | 16.09 | Fair | CLR | 19.4 | -4.4 | 19.4 | -0.6 | 20% | 76.45 | 1013.0 | |||||
| 03 | 10:53 | SW 11 | 16.09 | Fair | CLR | 16.1 | -0.6 | 32% | 76.5 | 1014.3 | |||||||
| 03 | 09:53 | Calm | 16.09 | Fair | CLR | 12.8 | 0 | 42% | 76.56 | 1015.8 | |||||||
| 03 | 08:53 | E 13 | 16.09 | Fair | CLR | 8.9 | 1.1 | 58% | 7 | 76.61 | 1017.0 | ||||||
| 03 | 07:53 | E 9 | 16.09 | Fair | CLR | 3.9 | 0.6 | 79% | 2 | 76.63 | 1018.3 | ||||||
| 03 | 06:53 | E 7 | 16.09 | Fair | CLR | 0.6 | -1.7 | 85% | -1 | 76.61 | 1017.9 | ||||||
| 03 | 05:53 | NE 7 | 16.09 | Fair | CLR | -0.6 | -2.2 | 7.8 | -0.6 | 89% | -3 | 76.61 | 1017.7 | ||||
| 03 | 04:53 | N 7 | 16.09 | Fair | CLR | 1.1 | -1.1 | 85% | -1 | 76.58 | 1017.1 | ||||||
| 03 | 03:53 | N 9 | 16.09 | Fair | CLR | 2.2 | -0.6 | 82% | -0 | 76.63 | 1017.2 | ||||||
| 03 | 02:53 | N 9 | 16.09 | Fair | CLR | 2.2 | -0.6 | 82% | -0 | 76.63 | 1017.4 | ||||||
| 03 | 01:53 | N 13 | 16.09 | Fair | CLR | 3.3 | -1.1 | 73% | 0 | 76.66 | 1017.6 | ||||||
| 03 | 00:53 | W 6 | 16.09 | Fair | CLR | 4.4 | -1.1 | 68% | 76.68 | 1017.9 | |||||||
| 02 | 23:53 | Calm | 16.09 | Fair | CLR | 7.2 | -2.2 | 16.1 | 6.1 | 52% | 76.71 | 1017.7 | |||||
| 02 | 22:53 | S 6 | 16.09 | Fair | CLR | 7.8 | -2.2 | 50% | 76.71 | 1018.1 | |||||||
| 02 | 21:53 | W 9 | 16.09 | Fair | CLR | 8.3 | -2.2 | 48% | 7 | 76.68 | 1018.4 | ||||||
| 02 | 20:53 | W 9 | 16.09 | Fair | CLR | 9.4 | -2.8 | 43% | 8 | 76.63 | 1018.5 | ||||||
| 02 | 19:53 | S 13 | 16.09 | Fair | CLR | 10.6 | -3.3 | 38% | 76.61 | 1018.5 | |||||||
| 02 | 18:53 | S 19 | 16.09 | Fair | CLR | 14.4 | -5.6 | 25% | 76.58 | 1017.9 | |||||||
| 02 | 17:53 | S 17 | 16.09 | Fair | CLR | 16.1 | -5.6 | 16.7 | 13.3 | 22% | 76.58 | 1017.7 | |||||
| 02 | 16:53 | S 20 G 31 | 16.09 | Fair | CLR | 16.1 | -5.6 | 22% | 76.58 | 1017.9 | |||||||
| 02 | 15:53 | S 19 G 41 | 16.09 | Fair | CLR | 16.1 | -5.6 | 22% | 76.63 | 1018.3 | |||||||
| 02 | 14:53 | SW 20 G 35 | 16.09 | Fair | CLR | 16.1 | -5.6 | 22% | 76.71 | 1019.3 | |||||||
| 02 | 13:53 | S 17 | 16.09 | Fair | CLR | 15.6 | -5.6 | 23% | 76.76 | 1020.3 | |||||||
| 02 | 12:53 | SW 19 G 33 | 16.09 | Fair | CLR | 15 | -5 | 25% | 76.81 | 1020.7 | |||||||
| 02 | 11:53 | Calm | 16.09 | Fair | CLR | 13.3 | -6.7 | 13.3 | -2.8 | 24% | 76.86 | 1021.6 | |||||
| 02 | 10:53 | Calm | 16.09 | Fair | CLR | 12.2 | -6.1 | 28% | 76.89 | 1021.8 | |||||||
| 02 | 09:53 | Calm | 16.09 | Fair | CLR | 9.4 | 0.6 | 55% | 76.89 | 1022.4 | |||||||
| 02 | 08:53 | E 15 | 16.09 | Fair | CLR | 5 | 1.7 | 79% | 2 | 76.89 | 1023.5 | ||||||
| 02 | 07:53 | E 11 | 16.09 | Fair | CLR | 1.7 | 0 | 89% | -1 | 76.89 | 1024.1 | ||||||
| 02 | 06:53 | E 9 | 16.09 | Fair | CLR | -1.7 | -2.2 | 96% | -5 | 76.86 | 1024.4 | ||||||
| 02 | 05:53 | E 9 | 1.61 | Fog/Mist | VV002 | -2.2 | -2.8 | 1.1 | -2.8 | 96% | -5 | 76.84 | 1024.0 | ||||
| 02 | 04:53 | NE 9 | 16.09 | Fair | CLR | -1.7 | -2.8 | 92% | -5 | 76.81 | 1023.4 | ||||||
| 02 | 03:53 | NE 9 | 16.09 | Fair | CLR | -1.1 | -1.7 | 96% | -4 | 76.78 | 1022.2 | ||||||
| 02 | 02:53 | NE 6 | 16.09 | Fair | CLR | -0.6 | -1.1 | 96% | 76.78 | 1022.4 | |||||||
| 02 | 01:53 | SW 6 | 16.09 | Fair | CLR | -1.1 | -1.1 | 100% | 76.78 | 1022.9 | |||||||
| 02 | 00:53 | N 11 | 16.09 | Fair | CLR | 0 | -0.6 | 96% | -3 | 76.78 | 1023.0 | ||||||
| 01 | 23:53 | N 9 | 16.09 | Fair | CLR | 0.6 | -0.6 | 5.6 | 0.6 | 92% | -2 | 76.78 | 1023.0 | ||||
| 01 | 22:53 | N 9 | 16.09 | Overcast | OVC085 | 1.7 | 1.1 | 96% | -1 | 76.81 | 1022.8 | ||||||
| 01 | 21:53 | NW 7 | 16.09 | Mostly Cloudy | BKN080 | 2.8 | 1.1 | 89% | 1 | 76.78 | 1022.6 | ||||||
| 01 | 20:53 | NW 7 | 16.09 | A Few Clouds | FEW075 | 2.8 | 1.7 | 93% | 1 | 76.76 | 1022.1 | ||||||
| 01 | 19:53 | W 13 | 16.09 | Fair | CLR | 3.9 | 2.2 | 89% | 1 | 76.68 | 1021.2 | ||||||
| 01 | 18:53 | SW 17 | 16.09 | Mostly Cloudy | FEW014 BKN020 BKN049 | 5 | 2.8 | 86% | 2 | 76.63 | 1020.2 | ||||||
| 01 | 17:53 | SW 19 | 11.27 | Light Rain | BKN018 OVC025 | 5.6 | 3.3 | 8.9 | 3.9 | 85% | 2 | 76.63 | 1019.6 | 0.03 | 0.03 | ||
| 01 | 16:53 | S 22 | 16.09 | Overcast | BKN020 BKN039 OVC048 | 6.1 | 2.8 | 80% | 3 | 76.58 | 1019.1 | ||||||
| 01 | 15:53 | S 17 | 16.09 | Overcast | FEW022 OVC055 | 8.9 | 2.8 | 66% | 7 | 76.56 | 1018.2 | ||||||
| 01 | 14:53 | Vrbl 7 | 16.09 | Overcast | SCT018 BKN034 OVC060 | 7.2 | 2.2 | 71% | 6 | 76.61 | 1019.1 | ||||||
| 01 | 13:53 | SW 13 | 16.09 | Overcast | SCT013 BKN020 OVC025 | 6.1 | 2.8 | 80% | 4 | 76.63 | 1020.2 | ||||||
| 01 | 12:53 | W 11 | 16.09 | Overcast | OVC012 | 4.4 | 2.2 | 86% | 2 | 76.68 | 1021.0 | ||||||
| 01 | 11:53 | W 13 | 16.09 | Overcast | SCT011 OVC019 | 4.4 | 2.2 | 5 | 2.8 | 86% | 2 | 76.68 | 1021.4 | ||||
| 01 | 10:53 | Vrbl 6 | 16.09 | Overcast | OVC015 | 4.4 | 1.7 | 83% | 76.66 | 1020.9 | |||||||
| 01 | 09:53 | S 7 | 16.09 | Overcast | SCT009 OVC015 | 3.3 | 1.7 | 89% | 2 | 76.63 | 1021.2 | ||||||
| 01 | 08:53 | S 7 | 16.09 | Overcast | SCT008 OVC024 | 3.3 | 1.7 | 89% | 2 | 76.61 | 1020.4 | ||||||
| 01 | 07:53 | Calm | 16.09 | Overcast | FEW016 OVC022 | 2.8 | 1.7 | 93% | 76.58 | 1020.1 | |||||||
| 01 | 06:53 | E 6 | 14.48 | Overcast | OVC022 | 2.8 | 1.7 | 93% | 76.56 | 1019.3 | |||||||
| 01 | 05:53 | Calm | 16.09 | Overcast | FEW004 OVC024 | 2.8 | 1.7 | 2.8 | 1.7 | 93% | 76.53 | 1018.9 | 0.18 | ||||
| 01 | 04:53 | Calm | 16.09 | Overcast | FEW002 OVC023 | 2.2 | 1.7 | 97% | 76.53 | 1018.6 | |||||||
| 01 | 03:53 | E 6 | 16.09 | Overcast | OVC030 | 2.2 | 1.7 | 97% | 76.53 | 1018.6 | |||||||
| 01 | 02:53 | E 6 | 12.87 | Overcast | SCT015 OVC027 | 2.2 | 1.7 | 97% | 76.53 | 1018.5 | 0.05 | 0.18 | |||||
| 01 | 01:53 | E 6 | 6.44 | Light Rain Fog/Mist | FEW001 FEW014 OVC027 | 1.7 | 1.1 | 96% | 76.58 | 1018.8 | 0.05 | ||||||
| 01 | 00:53 | NE 7 | 12.87 | Light Rain | BKN010 OVC025 | 2.2 | 1.7 | 97% | 0 | 76.61 | 1018.7 | 0.08 | |||||
| 30 | 23:53 | N 7 | 9.66 | Light Rain Fog/Mist | OVC021 | 1.1 | 0.6 | 3.9 | 1.1 | 97% | -1 | 76.61 | 1019.3 | 0.25 | 1.19 | ||
| 30 | 22:53 | N 7 | 6.44 | Light Snow Fog/Mist | FEW008 OVC017 | 1.7 | 0.6 | 93% | -0 | 76.61 | 1019.3 | 0.18 | |||||
| Date | Time (mdt) | Wind (kph) | Vis. (km) | Weather | Sky Cond. | Air | Dwpt | Max. | Min. | Relative Humidity | Wind Chill (°C) | Heat Index (°C) | altimeter (cm) | sea level (mb) | 1 hr | 3 hr | 6 hr |
| 6 hour | |||||||||||||||||
| Temperature (ºC) | Pressure | Precipitation (cm) | |||||||||||||||